| time (UTC) | temp F | wind direction | speed MPH | gust MPH | rain 1hr in | rain 24hr in | rain mn in | humidity % | barometer mb |
| 20260510212806 | 105 | 78 | 1.0 | 6.0 | 0.00 | 0.00 | 0.00 | 8 | 1013.3 |
| 20260510212306 | 105 | 129 | 4.0 | 11.0 | 0.00 | 0.00 | 0.00 | 8 | 1013.1 |
| 20260510211801 | 106 | 159 | 1.0 | 9.0 | 0.00 | 0.00 | 0.00 | 8 | 1013.2 |
| 20260510211256 | 105 | 76 | 1.0 | 8.0 | 0.00 | 0.00 | 0.00 | 8 | 1013.1 |
| 20260510210752 | 106 | 77 | 3.0 | 4.0 | 0.00 | 0.00 | 0.00 | 8 | 1013.1 |
| 20260510210247 | 105 | 113 | 6.0 | 6.0 | 0.00 | 0.00 | 0.00 | 8 | 1013.3 |
| 20260510205746 | 105 | 105 | 2.0 | 6.0 | 0.00 | 0.00 | 0.00 | 8 | 1013.4 |
| 20260510205242 | 106 | 66 | 4.0 | 8.0 | 0.00 | 0.00 | 0.00 | 8 | 1013.5 |
| 20260510204738 | 107 | 114 | 4.0 | 7.0 | 0.00 | 0.00 | 0.00 | 7 | 1013.3 |
| 20260510204235 | 106 | 135 | 0.0 | 6.0 | 0.00 | 0.00 | 0.00 | 8 | 1013.4 |
| 20260510203732 | 105 | 108 | 6.0 | 9.0 | 0.00 | 0.00 | 0.00 | 8 | 1013.4 |
| 20260510203230 | 106 | 108 | 4.0 | 6.0 | 0.00 | 0.00 | 0.00 | 8 | 1013.6 |
| 20260510202729 | 104 | 51 | 1.0 | 5.0 | 0.00 | 0.00 | 0.00 | 8 | 1013.5 |
| 20260510202224 | 106 | 213 | 2.0 | 4.0 | 0.00 | 0.00 | 0.00 | 7 | 1013.5 |
| 20260510201722 | 106 | 218 | 4.0 | 5.0 | 0.00 | 0.00 | 0.00 | 8 | 1013.7 |
| 20260510201218 | 106 | 157 | 1.0 | 5.0 | 0.00 | 0.00 | 0.00 | 8 | 1013.8 |
| 20260510200714 | 106 | 102 | 5.0 | 5.0 | 0.00 | 0.00 | 0.00 | 8 | 1013.6 |
| 20260510200213 | 106 | 221 | 4.0 | 5.0 | 0.00 | 0.00 | 0.00 | 8 | 1013.6 |
| 20260510195709 | 105 | 172 | 4.0 | 4.0 | 0.00 | 0.00 | 0.00 | 8 | 1013.8 |
| 20260510195206 | 105 | 122 | 3.0 | 5.0 | 0.00 | 0.00 | 0.00 | 8 | 1013.7 |
| 20260510194705 | 104 | 170 | 4.0 | 8.0 | 0.00 | 0.00 | 0.00 | 8 | 1013.9 |
| 20260510194202 | 104 | 98 | 2.0 | 4.0 | 0.00 | 0.00 | 0.00 | 8 | 1013.9 |
| 20260510193657 | 103 | 241 | 8.0 | 14.0 | 0.00 | 0.00 | 0.00 | 8 | 1013.8 |
| 20260510193152 | 103 | 119 | 3.0 | 6.0 | 0.00 | 0.00 | 0.00 | 9 | 1013.9 |
| 20260510192648 | 104 | 207 | 2.0 | 6.0 | 0.00 | 0.00 | 0.00 | 8 | 1014.0 |
| 20260510192143 | 105 | 237 | 3.0 | 5.0 | 0.00 | 0.00 | 0.00 | 8 | 1013.9 |
| 20260510191640 | 105 | 134 | 2.0 | 3.0 | 0.00 | 0.00 | 0.00 | 8 | 1014.1 |
| 20260510191137 | 103 | 137 | 2.0 | 4.0 | 0.00 | 0.00 | 0.00 | 8 | 1014.0 |
| 20260510190634 | 103 | 103 | 2.0 | 5.0 | 0.00 | 0.00 | 0.00 | 9 | 1014.1 |
| 20260510190132 | 102 | 225 | 1.0 | 4.0 | 0.00 | 0.00 | 0.00 | 9 | 1014.0 |
| 20260510185628 | 104 | 186 | 4.0 | 7.0 | 0.00 | 0.00 | 0.00 | 9 | 1014.2 |
| 20260510185126 | 102 | 97 | 3.0 | 4.0 | 0.00 | 0.00 | 0.00 | 8 | 1014.3 |
| 20260510184623 | 101 | 11 | 0.0 | 4.0 | 0.00 | 0.00 | 0.00 | 9 | 1014.2 |
| 20260510184119 | 101 | 104 | 4.0 | 7.0 | 0.00 | 0.00 | 0.00 | 9 | 1014.2 |
| 20260510183614 | 101 | 132 | 2.0 | 6.0 | 0.00 | 0.00 | 0.00 | 9 | 1014.4 |
| 20260510183109 | 102 | 230 | 2.0 | 4.0 | 0.00 | 0.00 | 0.00 | 9 | 1014.3 |
| 20260510182606 | 103 | 124 | 5.0 | 5.0 | 0.00 | 0.00 | 0.00 | 8 | 1014.4 |
| 20260510182102 | 102 | 135 | 0.0 | 3.0 | 0.00 | 0.00 | 0.00 | 8 | 1014.2 |
| 20260510181559 | 100 | 276 | 0.0 | 4.0 | 0.00 | 0.00 | 0.00 | 8 | 1014.2 |
| 20260510181055 | 101 | 78 | 1.0 | 3.0 | 0.00 | 0.00 | 0.00 | 8 | 1014.3 |
| 20260510180552 | 100 | 106 | 1.0 | 6.0 | 0.00 | 0.00 | 0.00 | 8 | 1014.3 |
| 20260510180050 | 101 | 97 | 3.0 | 5.0 | 0.00 | 0.00 | 0.00 | 8 | 1014.2 |
| 20260510175544 | 101 | 118 | 4.0 | 5.0 | 0.00 | 0.00 | 0.00 | 8 | 1014.6 |
| 20260510175041 | 101 | 168 | 0.0 | 3.0 | 0.00 | 0.00 | 0.00 | 8 | 1014.5 |
| 20260510174539 | 99 | 102 | 4.0 | 6.0 | 0.00 | 0.00 | 0.00 | 8 | 1014.5 |
| 20260510174036 | 100 | 108 | 4.0 | 5.0 | 0.00 | 0.00 | 0.00 | 8 | 1014.3 |
| 20260510173525 | 100 | 233 | 2.0 | 4.0 | 0.00 | 0.00 | 0.00 | 8 | 1014.2 |
| 20260510173023 | 100 | 297 | 1.0 | 3.0 | 0.00 | 0.00 | 0.00 | 10 | 1014.2 |
| 20260510172519 | 99 | 104 | 4.0 | 4.0 | 0.00 | 0.00 | 0.00 | 9 | 1014.2 |
| 20260510172015 | 99 | 232 | 1.0 | 3.0 | 0.00 | 0.00 | 0.00 | 9 | 1014.1 |
| 20260510171512 | 98 | 64 | 1.0 | 4.0 | 0.00 | 0.00 | 0.00 | 9 | 1014.2 |
| 20260510171008 | 98 | 65 | 1.0 | 2.0 | 0.00 | 0.00 | 0.00 | 11 | 1014.2 |
| 20260510170505 | 97 | 86 | 3.0 | 4.0 | 0.00 | 0.00 | 0.00 | 10 | 1014.3 |
| 20260510170001 | 97 | 140 | 2.0 | 4.0 | 0.00 | 0.00 | 0.00 | 9 | 1014.0 |
| 20260510165457 | 97 | 79 | 0.0 | 4.0 | 0.00 | 0.00 | 0.00 | 10 | 1014.0 |
| 20260510164954 | 96 | 99 | 1.0 | 4.0 | 0.00 | 0.00 | 0.00 | 11 | 1014.2 |
| 20260510164450 | 96 | 100 | 3.0 | 6.0 | 0.00 | 0.00 | 0.00 | 11 | 1013.9 |
| 20260510163945 | 95 | 76 | 2.0 | 3.0 | 0.00 | 0.00 | 0.00 | 12 | 1014.1 |
| 20260510163437 | 95 | 86 | 4.0 | 4.0 | 0.00 | 0.00 | 0.00 | 11 | 1014.0 |
| 20260510162937 | 96 | 67 | 1.0 | 2.0 | 0.00 | 0.00 | 0.00 | 12 | 1013.9 |
| 20260510162429 | 95 | 354 | 0.0 | 2.0 | 0.00 | 0.00 | 0.00 | 11 | 1013.9 |
| 20260510161925 | 95 | 86 | 2.0 | 4.0 | 0.00 | 0.00 | 0.00 | 12 | 1013.7 |
| 20260510161420 | 94 | 81 | 2.0 | 2.0 | 0.00 | 0.00 | 0.00 | 12 | 1013.8 |
| 20260510160918 | 93 | 11 | 2.0 | 3.0 | 0.00 | 0.00 | 0.00 | 14 | 1013.8 |
| 20260510160415 | 93 | 111 | 0.0 | 3.0 | 0.00 | 0.00 | 0.00 | 13 | 1013.7 |
| 20260510155913 | 93 | 117 | 1.0 | 2.0 | 0.00 | 0.00 | 0.00 | 14 | 1013.6 |
| 20260510155410 | 93 | 100 | 3.0 | 4.0 | 0.00 | 0.00 | 0.00 | 13 | 1013.4 |
| 20260510154907 | 93 | 310 | 0.0 | 2.0 | 0.00 | 0.00 | 0.00 | 14 | 1013.6 |
| 20260510154404 | 93 | 62 | 1.0 | 2.0 | 0.00 | 0.00 | 0.00 | 14 | 1013.5 |
| 20260510153902 | 92 | 63 | 1.0 | 2.0 | 0.00 | 0.00 | 0.00 | 15 | 1013.3 |
| 20260510153359 | 93 | 60 | 2.0 | 2.0 | 0.00 | 0.00 | 0.00 | 15 | 1013.4 |
| 20260510152856 | 93 | 59 | 0.0 | 2.0 | 0.00 | 0.00 | 0.00 | 15 | 1013.4 |
| 20260510152353 | 92 | 307 | 2.0 | 2.0 | 0.00 | 0.00 | 0.00 | 16 | 1013.3 |
| 20260510151849 | 90 | 22 | 1.0 | 2.0 | 0.00 | 0.00 | 0.00 | 16 | 1013.3 |
| 20260510151347 | 91 | 353 | 1.0 | 2.0 | 0.00 | 0.00 | 0.00 | 17 | 1013.5 |
| 20260510150843 | 91 | 315 | 0.0 | 2.0 | 0.00 | 0.00 | 0.00 | 16 | 1013.4 |
| 20260510150339 | 88 | 322 | 0.0 | 2.0 | 0.00 | 0.00 | 0.00 | 18 | 1013.4 |
| 20260510145835 | 88 | 21 | 0.0 | 2.0 | 0.00 | 0.00 | 0.00 | 18 | 1013.4 |
| 20260510145331 | 87 | 279 | 0.0 | 2.0 | 0.00 | 0.00 | 0.00 | 18 | 1013.3 |
| 20260510144828 | 84 | 43 | 1.0 | 2.0 | 0.00 | 0.00 | 0.00 | 20 | 1013.3 |
| 20260510144325 | 83 | 311 | 1.0 | 2.0 | 0.00 | 0.00 | 0.00 | 23 | 1013.3 |
| 20260510143825 | 85 | 303 | 0.0 | 1.0 | 0.00 | 0.00 | 0.00 | 21 | 1013.3 |
| 20260510143321 | 82 | 311 | 0.0 | 1.0 | 0.00 | 0.00 | 0.00 | 21 | 1013.2 |
| 20260510142818 | 80 | 271 | 0.0 | 1.0 | 0.00 | 0.00 | 0.00 | 22 | 1013.2 |
| 20260510142315 | 79 | 326 | 2.0 | 2.0 | 0.00 | 0.00 | 0.00 | 23 | 1013.1 |
| 20260510141812 | 78 | 340 | 2.0 | 3.0 | 0.00 | 0.00 | 0.00 | 24 | 1013.1 |
| 20260510141309 | 80 | 6 | 2.0 | 2.0 | 0.00 | 0.00 | 0.00 | 21 | 1012.9 |
| 20260510140807 | 80 | 13 | 2.0 | 3.0 | 0.00 | 0.00 | 0.00 | 18 | 1012.9 |
| 20260510140302 | 81 | 339 | 1.0 | 1.0 | 0.00 | 0.00 | 0.00 | 16 | 1012.8 |
| 20260510135756 | 81 | 96 | 1.0 | 2.0 | 0.00 | 0.00 | 0.00 | 15 | 1012.6 |
| 20260510135252 | 79 | 29 | 1.0 | 2.0 | 0.00 | 0.00 | 0.00 | 15 | 1012.8 |
| 20260510134750 | 78 | 87 | 1.0 | 2.0 | 0.00 | 0.00 | 0.00 | 15 | 1012.5 |
| 20260510134247 | 77 | 333 | 0.0 | 1.0 | 0.00 | 0.00 | 0.00 | 15 | 1012.5 |
| 20260510133742 | 75 | 309 | 1.0 | 2.0 | 0.00 | 0.00 | 0.00 | 15 | 1012.7 |
| 20260510133238 | 74 | 164 | 2.0 | 2.0 | 0.00 | 0.00 | 0.00 | 15 | 1012.5 |
| 20260510132734 | 73 | 143 | 1.0 | 2.0 | 0.00 | 0.00 | 0.00 | 16 | 1012.7 |
| 20260510132232 | 71 | 212 | 1.0 | 4.0 | 0.00 | 0.00 | 0.00 | 16 | 1012.5 |
| 20260510131728 | 69 | 228 | 1.0 | 2.0 | 0.00 | 0.00 | 0.00 | 18 | 1012.5 |
| 20260510131227 | 69 | 173 | 0.0 | 2.0 | 0.00 | 0.00 | 0.00 | 19 | 1012.4 |
| 20260510130723 | 68 | 209 | 1.0 | 2.0 | 0.00 | 0.00 | 0.00 | 19 | 1012.3 |
| 20260510130220 | 68 | 221 | 1.0 | 2.0 | 0.00 | 0.00 | 0.00 | 19 | 1012.3 |
| 20260510125716 | 68 | 245 | 0.0 | 3.0 | 0.00 | 0.00 | 0.00 | 21 | 1012.1 |
| 20260510125212 | 67 | 264 | 1.0 | 3.0 | 0.00 | 0.00 | 0.00 | 21 | 1012.5 |
| 20260510124709 | 67 | 269 | 1.0 | 2.0 | 0.00 | 0.00 | 0.00 | 21 | 1012.3 |
| 20260510124207 | 66 | 217 | 1.0 | 3.0 | 0.00 | 0.00 | 0.00 | 20 | 1012.2 |
| 20260510123702 | 67 | 204 | 0.0 | 3.0 | 0.00 | 0.00 | 0.00 | 20 | 1012.2 |
| 20260510123158 | 68 | 220 | 1.0 | 2.0 | 0.00 | 0.00 | 0.00 | 19 | 1012.2 |
| 20260510122655 | 68 | 233 | 1.0 | 2.0 | 0.00 | 0.00 | 0.00 | 20 | 1012.1 |
| 20260510122151 | 69 | 214 | 0.0 | 2.0 | 0.00 | 0.00 | 0.00 | 20 | 1012.1 |
| 20260510121647 | 69 | 257 | 1.0 | 2.0 | 0.00 | 0.00 | 0.00 | 20 | 1012.1 |
| 20260510121144 | 69 | 234 | 0.0 | 2.0 | 0.00 | 0.00 | 0.00 | 20 | 1012.1 |
| 20260510120642 | 69 | 209 | 1.0 | 2.0 | 0.00 | 0.00 | 0.00 | 20 | 1012.2 |
| 20260510120137 | 70 | 119 | 0.0 | 2.0 | 0.00 | 0.00 | 0.00 | 19 | 1012.3 |
| 20260510115633 | 69 | 249 | 0.0 | 2.0 | 0.00 | 0.00 | 0.00 | 19 | 1012.2 |
| 20260510115132 | 68 | 269 | 0.0 | 2.0 | 0.00 | 0.00 | 0.00 | 20 | 1012.3 |
| 20260510114627 | 67 | 267 | 1.0 | 2.0 | 0.00 | 0.00 | 0.00 | 21 | 1012.3 |
| 20260510114124 | 68 | 216 | 2.0 | 2.0 | 0.00 | 0.00 | 0.00 | 21 | 1012.1 |
| 20260510113619 | 68 | 249 | 0.0 | 1.0 | 0.00 | 0.00 | 0.00 | 24 | 1012.0 |
| 20260510113116 | 68 | 162 | 0.0 | 2.0 | 0.00 | 0.00 | 0.00 | 24 | 1012.2 |
| 20260510112613 | 67 | 248 | 1.0 | 2.0 | 0.00 | 0.00 | 0.00 | 26 | 1012.1 |
| 20260510112109 | 68 | 200 | 1.0 | 2.0 | 0.00 | 0.00 | 0.00 | 26 | 1012.0 |
| 20260510111606 | 68 | 194 | 0.0 | 2.0 | 0.00 | 0.00 | 0.00 | 26 | 1012.1 |
| 20260510111102 | 68 | 190 | 0.0 | 2.0 | 0.00 | 0.00 | 0.00 | 26 | 1012.0 |
| 20260510110558 | 69 | 249 | 0.0 | 1.0 | 0.00 | 0.00 | 0.00 | 27 | 1012.0 |
| 20260510110055 | 69 | 18 | 2.0 | 3.0 | 0.00 | 0.00 | 0.00 | 28 | 1012.2 |
| 20260510105550 | 70 | 186 | 0.0 | 2.0 | 0.00 | 0.00 | 0.00 | 27 | 1012.0 |
| 20260510105039 | 69 | 255 | 2.0 | 2.0 | 0.00 | 0.00 | 0.00 | 26 | 1012.1 |
| 20260510104537 | 69 | 235 | 2.0 | 3.0 | 0.00 | 0.00 | 0.00 | 26 | 1012.1 |
| 20260510104033 | 68 | 233 | 1.0 | 2.0 | 0.00 | 0.00 | 0.00 | 26 | 1011.8 |
| 20260510103531 | 69 | 268 | 2.0 | 2.0 | 0.00 | 0.00 | 0.00 | 25 | 1011.8 |
| 20260510103026 | 70 | 251 | 1.0 | 1.0 | 0.00 | 0.00 | 0.00 | 25 | 1011.7 |
| 20260510102522 | 69 | 269 | 0.0 | 2.0 | 0.00 | 0.00 | 0.00 | 26 | 1011.8 |
| 20260510102019 | 69 | 242 | 1.0 | 2.0 | 0.00 | 0.00 | 0.00 | 25 | 1012.0 |
| 20260510101516 | 69 | 214 | 0.0 | 2.0 | 0.00 | 0.00 | 0.00 | 25 | 1011.6 |
| 20260510101015 | 68 | 225 | 2.0 | 2.0 | 0.00 | 0.00 | 0.00 | 25 | 1011.6 |
| 20260510100510 | 69 | 300 | 1.0 | 2.0 | 0.00 | 0.00 | 0.00 | 26 | 1012.0 |
| 20260510100008 | 68 | 230 | 0.0 | 1.0 | 0.00 | 0.00 | 0.00 | 27 | 1011.6 |
| 20260510095503 | 68 | 228 | 0.0 | 2.0 | 0.00 | 0.00 | 0.00 | 30 | 1011.5 |
| 20260510095002 | 69 | 191 | 0.0 | 1.0 | 0.00 | 0.00 | 0.00 | 29 | 1011.7 |
| 20260510094457 | 68 | 184 | 0.0 | 2.0 | 0.00 | 0.00 | 0.00 | 30 | 1011.7 |
| 20260510093953 | 69 | 200 | 1.0 | 1.0 | 0.00 | 0.00 | 0.00 | 31 | 1011.6 |
| 20260510093449 | 69 | 152 | 0.0 | 2.0 | 0.00 | 0.00 | 0.00 | 27 | 1011.7 |
| 20260510092945 | 71 | 253 | 1.0 | 2.0 | 0.00 | 0.00 | 0.00 | 26 | 1011.7 |
| 20260510092442 | 70 | 246 | 0.0 | 1.0 | 0.00 | 0.00 | 0.00 | 27 | 1011.7 |
| 20260510091936 | 69 | 309 | 0.0 | 0.0 | 0.00 | 0.00 | 0.00 | 26 | 1011.8 |
| 20260510091434 | 70 | 255 | 0.0 | 2.0 | 0.00 | 0.00 | 0.00 | 25 | 1011.8 |
| 20260510090930 | 69 | 237 | 2.0 | 3.0 | 0.00 | 0.00 | 0.00 | 27 | 1011.7 |
| 20260510090427 | 70 | 221 | 1.0 | 2.0 | 0.00 | 0.00 | 0.00 | 27 | 1011.8 |
| 20260510085923 | 70 | 279 | 2.0 | 2.0 | 0.00 | 0.00 | 0.00 | 26 | 1011.8 |
| 20260510085418 | 70 | 261 | 0.0 | 1.0 | 0.00 | 0.00 | 0.00 | 25 | 1011.8 |
| 20260510084913 | 71 | 264 | 2.0 | 2.0 | 0.00 | 0.00 | 0.00 | 25 | 1011.7 |
| 20260510084411 | 71 | 256 | 1.0 | 2.0 | 0.00 | 0.00 | 0.00 | 27 | 1011.8 |
| 20260510083908 | 70 | 294 | 0.0 | 0.0 | 0.00 | 0.00 | 0.00 | 28 | 1011.6 |
| 20260510083404 | 70 | 231 | 1.0 | 1.0 | 0.00 | 0.00 | 0.00 | 28 | 1011.7 |
| 20260510082859 | 71 | 252 | 0.0 | 2.0 | 0.00 | 0.00 | 0.00 | 30 | 1011.8 |
| 20260510082357 | 72 | 293 | 0.0 | 1.0 | 0.00 | 0.00 | 0.00 | 31 | 1012.0 |
| 20260510081856 | 72 | 266 | 0.0 | 1.0 | 0.00 | 0.00 | 0.00 | 30 | 1011.8 |
| 20260510081352 | 72 | 255 | 0.0 | 2.0 | 0.00 | 0.00 | 0.00 | 30 | 1012.0 |
| 20260510080849 | 73 | 238 | 1.0 | 2.0 | 0.00 | 0.00 | 0.00 | 30 | 1012.2 |
| 20260510080348 | 74 | 217 | 1.0 | 2.0 | 0.00 | 0.00 | 0.00 | 30 | 1012.0 |
| 20260510075845 | 75 | 243 | 2.0 | 2.0 | 0.00 | 0.00 | 0.00 | 29 | 1012.1 |
| 20260510075343 | 73 | 263 | 2.0 | 2.0 | 0.00 | 0.00 | 0.00 | 31 | 1012.1 |
| 20260510074839 | 72 | 233 | 1.0 | 3.0 | 0.00 | 0.00 | 0.00 | 30 | 1012.2 |
| 20260510074337 | 73 | 232 | 2.0 | 3.0 | 0.00 | 0.00 | 0.00 | 32 | 1012.3 |
| 20260510073833 | 74 | 217 | 2.0 | 2.0 | 0.00 | 0.00 | 0.00 | 31 | 1012.2 |
| 20260510073329 | 75 | 249 | 0.0 | 2.0 | 0.00 | 0.00 | 0.00 | 30 | 1012.3 |
| 20260510072825 | 74 | 259 | 0.0 | 2.0 | 0.00 | 0.00 | 0.00 | 32 | 1012.5 |
| 20260510072322 | 73 | 273 | 3.0 | 3.0 | 0.00 | 0.00 | 0.00 | 32 | 1012.3 |
| 20260510071818 | 73 | 258 | 0.0 | 2.0 | 0.00 | 0.00 | 0.00 | 31 | 1012.4 |
| 20260510071309 | 75 | 242 | 0.0 | 1.0 | 0.00 | 0.00 | 0.00 | 32 | 1012.4 |
| 20260510070808 | 74 | 149 | 1.0 | 1.0 | 0.00 | 0.00 | 0.00 | 32 | 1012.4 |
| 20260510070304 | 75 | 212 | 0.0 | 0.0 | 0.00 | 0.00 | 0.00 | 32 | 1012.2 |
| 20260510065804 | 75 | 239 | 0.0 | 1.0 | 0.00 | 0.00 | 0.00 | 31 | 1012.3 |
| 20260510065301 | 75 | 89 | 0.0 | 1.0 | 0.00 | 0.00 | 0.00 | 31 | 1012.4 |
| 20260510064758 | 75 | 345 | 1.0 | 1.0 | 0.00 | 0.00 | 0.00 | 30 | 1012.1 |
| 20260510064256 | 74 | 266 | 1.0 | 2.0 | 0.00 | 0.00 | 0.00 | 29 | 1012.2 |
| 20260510063751 | 75 | 232 | 0.0 | 2.0 | 0.00 | 0.00 | 0.00 | 29 | 1012.3 |
| 20260510063248 | 75 | 283 | 0.0 | 2.0 | 0.00 | 0.00 | 0.00 | 29 | 1012.1 |
| 20260510062744 | 75 | 191 | 0.0 | 2.0 | 0.00 | 0.00 | 0.00 | 30 | 1012.2 |
| 20260510062240 | 75 | 254 | 0.0 | 2.0 | 0.00 | 0.00 | 0.00 | 29 | 1012.3 |
| 20260510061736 | 76 | 258 | 2.0 | 2.0 | 0.00 | 0.00 | 0.00 | 28 | 1012.3 |
| 20260510061233 | 77 | 255 | 0.0 | 2.0 | 0.00 | 0.00 | 0.00 | 28 | 1012.3 |
| 20260510060729 | 77 | 219 | 1.0 | 1.0 | 0.00 | 0.00 | 0.00 | 27 | 1012.4 |
| 20260510060226 | 78 | 29 | 0.0 | 1.0 | 0.00 | 0.00 | 0.00 | 27 | 1012.4 |
| 20260510055723 | 79 | 341 | 1.0 | 2.0 | 0.00 | 0.00 | 0.00 | 27 | 1012.3 |
| 20260510055221 | 79 | 227 | 1.0 | 2.0 | 0.00 | 0.00 | 0.00 | 27 | 1012.1 |
| 20260510054721 | 80 | 192 | 1.0 | 2.0 | 0.00 | 0.00 | 0.00 | 26 | 1012.2 |
| 20260510054217 | 80 | 227 | 0.0 | 2.0 | 0.00 | 0.00 | 0.00 | 27 | 1012.2 |
| 20260510053711 | 81 | 102 | 1.0 | 3.0 | 0.00 | 0.00 | 0.00 | 27 | 1012.0 |
| 20260510053208 | 80 | 205 | 0.0 | 2.0 | 0.00 | 0.00 | 0.00 | 28 | 1012.1 |
| 20260510052704 | 80 | 212 | 2.0 | 2.0 | 0.00 | 0.00 | 0.00 | 29 | 1012.0 |
| 20260510052200 | 80 | 182 | 0.0 | 2.0 | 0.00 | 0.00 | 0.00 | 28 | 1012.1 |
| 20260510051656 | 81 | 205 | 0.0 | 2.0 | 0.00 | 0.00 | 0.00 | 28 | 1012.1 |
| 20260510051153 | 83 | 76 | 1.0 | 3.0 | 0.00 | 0.00 | 0.00 | 27 | 1012.1 |
| 20260510050650 | 83 | 126 | 2.0 | 2.0 | 0.00 | 0.00 | 0.00 | 26 | 1012.0 |
| 20260510050147 | 84 | 118 | 1.0 | 1.0 | 0.00 | 0.00 | 0.00 | 26 | 1011.8 |
| 20260510045643 | 84 | 231 | 1.0 | 3.0 | 0.00 | 0.00 | 0.00 | 25 | 1011.8 |
| 20260510045140 | 85 | 263 | 0.0 | 3.0 | 0.00 | 0.00 | 0.00 | 24 | 1011.8 |
| 20260510044636 | 86 | 192 | 1.0 | 2.0 | 0.00 | 0.00 | 0.00 | 23 | 1011.8 |
| 20260510044134 | 87 | 250 | 1.0 | 2.0 | 0.00 | 0.00 | 0.00 | 22 | 1011.8 |
| 20260510043630 | 88 | 217 | 0.0 | 4.0 | 0.00 | 0.00 | 0.00 | 20 | 1011.8 |
| 20260510043126 | 89 | 308 | 0.0 | 4.0 | 0.00 | 0.00 | 0.00 | 19 | 1011.7 |
| 20260510042624 | 89 | 99 | 6.0 | 11.0 | 0.00 | 0.00 | 0.00 | 17 | 1011.5 |
| 20260510042119 | 88 | 116 | 1.0 | 5.0 | 0.00 | 0.00 | 0.00 | 21 | 1011.5 |
| 20260510041617 | 88 | 89 | 2.0 | 4.0 | 0.00 | 0.00 | 0.00 | 20 | 1011.7 |
| 20260510041114 | 89 | 244 | 0.0 | 2.0 | 0.00 | 0.00 | 0.00 | 20 | 1011.5 |
| 20260510040612 | 90 | 228 | 3.0 | 4.0 | 0.00 | 0.00 | 0.00 | 19 | 1011.5 |
| 20260510040108 | 90 | 313 | 0.0 | 6.0 | 0.00 | 0.00 | 0.00 | 18 | 1011.4 |
| 20260510035604 | 89 | 276 | 2.0 | 2.0 | 0.00 | 0.00 | 0.00 | 20 | 1011.4 |
| 20260510035103 | 89 | 65 | 1.0 | 3.0 | 0.00 | 0.00 | 0.00 | 20 | 1011.4 |
| 20260510034601 | 90 | 269 | 0.0 | 2.0 | 0.00 | 0.00 | 0.00 | 20 | 1011.4 |
| 20260510034059 | 90 | 282 | 4.0 | 5.0 | 0.00 | 0.00 | 0.00 | 19 | 1011.3 |
| 20260510033554 | 91 | 135 | 0.0 | 2.0 | 0.00 | 0.00 | 0.00 | 19 | 1011.0 |
| 20260510033052 | 89 | 226 | 2.0 | 5.0 | 0.00 | 0.00 | 0.00 | 20 | 1011.0 |
| 20260510032549 | 89 | 253 | 3.0 | 4.0 | 0.00 | 0.00 | 0.00 | 20 | 1010.9 |
| 20260510032044 | 90 | 303 | 0.0 | 2.0 | 0.00 | 0.00 | 0.00 | 20 | 1010.8 |
| 20260510031544 | 91 | 357 | 2.0 | 4.0 | 0.00 | 0.00 | 0.00 | 19 | 1010.7 |
| 20260510031041 | 91 | 251 | 2.0 | 4.0 | 0.00 | 0.00 | 0.00 | 20 | 1010.4 |
| 20260510030536 | 91 | 129 | 2.0 | 3.0 | 0.00 | 0.00 | 0.00 | 18 | 1010.3 |
| 20260510030034 | 92 | 354 | 1.0 | 2.0 | 0.00 | 0.00 | 0.00 | 17 | 1010.3 |
| 20260510025531 | 93 | 12 | 2.0 | 4.0 | 0.00 | 0.00 | 0.00 | 16 | 1010.4 |
| 20260510025028 | 93 | 260 | 9.0 | 9.0 | 0.00 | 0.00 | 0.00 | 16 | 1010.2 |
| 20260510024525 | 93 | 242 | 8.0 | 12.0 | 0.00 | 0.00 | 0.00 | 17 | 1010.2 |
| 20260510024021 | 93 | 243 | 4.0 | 9.0 | 0.00 | 0.00 | 0.00 | 17 | 1010.0 |
| 20260510023517 | 94 | 263 | 5.0 | 11.0 | 0.00 | 0.00 | 0.00 | 17 | 1009.9 |
| 20260510023015 | 93 | 259 | 4.0 | 9.0 | 0.00 | 0.00 | 0.00 | 18 | 1010.1 |
| 20260510022514 | 93 | 274 | 6.0 | 13.0 | 0.00 | 0.00 | 0.00 | 17 | 1009.9 |
| 20260510022014 | 93 | 262 | 6.0 | 11.0 | 0.00 | 0.00 | 0.00 | 18 | 1010.0 |
| 20260510021511 | 93 | 257 | 9.0 | 15.0 | 0.00 | 0.00 | 0.00 | 18 | 1009.8 |
| 20260510021008 | 93 | 244 | 5.0 | 9.0 | 0.00 | 0.00 | 0.00 | 19 | 1009.9 |
| 20260510020502 | 94 | 237 | 5.0 | 13.0 | 0.00 | 0.00 | 0.00 | 19 | 1009.8 |
| 20260510015958 | 94 | 255 | 4.0 | 14.0 | 0.00 | 0.00 | 0.00 | 19 | 1009.9 |
| 20260510015454 | 94 | 249 | 12.0 | 13.0 | 0.00 | 0.00 | 0.00 | 19 | 1009.7 |
| 20260510014949 | 94 | 254 | 11.0 | 14.0 | 0.00 | 0.00 | 0.00 | 20 | 1009.9 |
| 20260510014447 | 94 | 248 | 9.0 | 13.0 | 0.00 | 0.00 | 0.00 | 20 | 1009.7 |
| 20260510013944 | 94 | 299 | 6.0 | 15.0 | 0.00 | 0.00 | 0.00 | 21 | 1009.8 |
| 20260510013438 | 95 | 277 | 11.0 | 17.0 | 0.00 | 0.00 | 0.00 | 19 | 1009.6 |
| 20260510012934 | 95 | 280 | 7.0 | 14.0 | 0.00 | 0.00 | 0.00 | 20 | 1009.6 |
| 20260510012429 | 96 | 255 | 8.0 | 17.0 | 0.00 | 0.00 | 0.00 | 20 | 1009.7 |
| 20260510011924 | 98 | 253 | 11.0 | 13.0 | 0.00 | 0.00 | 0.00 | 19 | 1009.8 |
| 20260510011419 | 98 | 271 | 5.0 | 15.0 | 0.00 | 0.00 | 0.00 | 18 | 1009.7 |
| 20260510010916 | 99 | 322 | 7.0 | 15.0 | 0.00 | 0.00 | 0.00 | 18 | 1009.8 |
| 20260510010413 | 100 | 291 | 3.0 | 9.0 | 0.00 | 0.00 | 0.00 | 17 | 1009.8 |
| 20260510005910 | 100 | 253 | 5.0 | 13.0 | 0.00 | 0.00 | 0.00 | 17 | 1009.7 |
| 20260510005406 | 100 | 301 | 11.0 | 12.0 | 0.00 | 0.00 | 0.00 | 17 | 1009.7 |
| 20260510004903 | 100 | 310 | 8.0 | 16.0 | 0.00 | 0.00 | 0.00 | 16 | 1009.4 |
| 20260510004401 | 102 | 301 | 9.0 | 12.0 | 0.00 | 0.00 | 0.00 | 15 | 1009.4 |
| 20260510003858 | 101 | 332 | 11.0 | 13.0 | 0.00 | 0.00 | 0.00 | 15 | 1009.6 |
| 20260510003355 | 102 | 304 | 9.0 | 11.0 | 0.00 | 0.00 | 0.00 | 15 | 1009.4 |
| 20260510002854 | 102 | 298 | 9.0 | 13.0 | 0.00 | 0.00 | 0.00 | 15 | 1009.5 |
| 20260510002352 | 102 | 259 | 8.0 | 11.0 | 0.00 | 0.00 | 0.00 | 15 | 1009.5 |
| 20260510001848 | 103 | 261 | 11.0 | 12.0 | 0.00 | 0.00 | 0.00 | 14 | 1009.6 |
| 20260510001346 | 102 | 314 | 4.0 | 11.0 | 0.00 | 0.00 | 0.00 | 14 | 1009.6 |
| 20260510000842 | 103 | 317 | 7.0 | 9.0 | 0.00 | 0.00 | 0.00 | 14 | 1009.6 |
| 20260510000341 | 103 | 309 | 6.0 | 9.0 | 0.00 | 0.00 | 0.00 | 14 | 1009.5 |
| 20260509235836 | 103 | 303 | 4.0 | 10.0 | 0.00 | 0.00 | 0.00 | 14 | 1009.7 |
| 20260509235332 | 103 | 312 | 6.0 | 12.0 | 0.00 | 0.00 | 0.00 | 14 | 1009.6 |
| 20260509234828 | 104 | 246 | 7.0 | 11.0 | 0.00 | 0.00 | 0.00 | 14 | 1009.8 |
| 20260509234325 | 104 | 261 | 7.0 | 10.0 | 0.00 | 0.00 | 0.00 | 11 | 1009.8 |
| 20260509233824 | 105 | 280 | 5.0 | 11.0 | 0.00 | 0.00 | 0.00 | 13 | 1009.8 |
| 20260509233321 | 104 | 255 | 8.0 | 14.0 | 0.00 | 0.00 | 0.00 | 12 | 1009.7 |
| 20260509232816 | 104 | 256 | 7.0 | 10.0 | 0.00 | 0.00 | 0.00 | 12 | 1009.6 |
| 20260509232314 | 104 | 264 | 6.0 | 15.0 | 0.00 | 0.00 | 0.00 | 12 | 1009.6 |
| 20260509231810 | 104 | 256 | 7.0 | 15.0 | 0.00 | 0.00 | 0.00 | 11 | 1009.7 |
| 20260509231307 | 104 | 249 | 9.0 | 16.0 | 0.00 | 0.00 | 0.00 | 11 | 1009.9 |
| 20260509230805 | 104 | 251 | 8.0 | 12.0 | 0.00 | 0.00 | 0.00 | 11 | 1009.9 |
| 20260509230302 | 105 | 251 | 6.0 | 13.0 | 0.00 | 0.00 | 0.00 | 10 | 1009.9 |
| 20260509225756 | 105 | 246 | 8.0 | 12.0 | 0.00 | 0.00 | 0.00 | 10 | 1009.9 |
| 20260509225253 | 105 | 247 | 11.0 | 15.0 | 0.00 | 0.00 | 0.00 | 11 | 1010.1 |
| 20260509224749 | 104 | 243 | 10.0 | 15.0 | 0.00 | 0.00 | 0.00 | 10 | 1010.1 |
| 20260509224247 | 104 | 245 | 10.0 | 14.0 | 0.00 | 0.00 | 0.00 | 10 | 1010.0 |
| 20260509223743 | 105 | 243 | 6.0 | 12.0 | 0.00 | 0.00 | 0.00 | 11 | 1010.0 |
| 20260509223240 | 105 | 240 | 7.0 | 14.0 | 0.00 | 0.00 | 0.00 | 10 | 1010.2 |
| 20260509222737 | 105 | 260 | 9.0 | 14.0 | 0.00 | 0.00 | 0.00 | 11 | 1010.2 |
| 20260509222232 | 105 | 315 | 7.0 | 11.0 | 0.00 | 0.00 | 0.00 | 11 | 1010.1 |
| 20260509221728 | 105 | 311 | 5.0 | 6.0 | 0.00 | 0.00 | 0.00 | 10 | 1010.2 |
| 20260509221224 | 106 | 226 | 3.0 | 10.0 | 0.00 | 0.00 | 0.00 | 10 | 1010.4 |
| 20260509220720 | 105 | 226 | 6.0 | 15.0 | 0.00 | 0.00 | 0.00 | 10 | 1010.5 |
| 20260509220217 | 107 | 188 | 1.0 | 10.0 | 0.00 | 0.00 | 0.00 | 10 | 1010.4 |
| 20260509215713 | 107 | 202 | 3.0 | 7.0 | 0.00 | 0.00 | 0.00 | 10 | 1010.7 |
| 20260509215209 | 104 | 113 | 3.0 | 7.0 | 0.00 | 0.00 | 0.00 | 9 | 1010.5 |
| 20260509214707 | 104 | 5 | 1.0 | 4.0 | 0.00 | 0.00 | 0.00 | 10 | 1010.7 |
| 20260509214204 | 105 | 133 | 4.0 | 5.0 | 0.00 | 0.00 | 0.00 | 9 | 1010.8 |
| 20260509213701 | 105 | 127 | 6.0 | 7.0 | 0.00 | 0.00 | 0.00 | 9 | 1010.8 |